| time (UTC) | temp C | wind direction | speed KPH | gust KPH | rain 1hr cm | rain 24hr cm | rain mn cm | humidity % | barometer mb |
| 20260504080210 | 16 | 28 | 3.2 | 0.0 | 0.00 | 0.00 | 0.00 | 64 | 1014.3 |
| 20260504070212 | 13 | 21 | 0.0 | 0.0 | 0.00 | 0.00 | 0.00 | 73 | 1014.5 |
| 20260504060212 | 10 | 355 | 0.0 | 0.0 | 0.00 | 0.00 | 0.00 | 83 | 1014.5 |
| 20260504050210 | 7 | 172 | 3.2 | 0.0 | 0.00 | 0.00 | 0.00 | 84 | 1014.7 |
| 20260504043211 | 7 | 173 | 3.2 | 0.0 | 0.00 | 0.00 | 0.00 | 83 | 1014.7 |
| 20260504040211 | 7 | 308 | 4.8 | 0.0 | 0.00 | 0.00 | 0.00 | 80 | 1014.7 |
| 20260504033211 | 8 | 218 | 4.8 | 0.0 | 0.00 | 0.00 | 0.00 | 80 | 1014.8 |
| 20260504030212 | 8 | 125 | 0.0 | 0.0 | 0.00 | 0.00 | 0.00 | 80 | 1014.8 |
| 20260504023211 | 8 | 125 | 1.6 | 0.0 | 0.00 | 0.00 | 0.00 | 80 | 1014.9 |
| 20260504020212 | 9 | 11 | 3.2 | 0.0 | 0.00 | 0.00 | 0.00 | 78 | 1014.9 |
| 20260504013211 | 9 | 11 | 3.2 | 0.0 | 0.00 | 0.00 | 0.00 | 76 | 1014.8 |
| 20260504010211 | 10 | 72 | 0.0 | 0.0 | 0.00 | 0.00 | 0.00 | 74 | 1015.0 |
| 20260504003210 | 10 | 72 | 3.2 | 0.0 | 0.00 | 0.00 | 0.00 | 73 | 1015.3 |
| 20260504000208 | 10 | 114 | 4.8 | 0.0 | 0.00 | 0.00 | 0.00 | 72 | 1015.2 |
| 20260503233209 | 11 | 101 | 0.0 | 0.0 | 0.00 | 0.00 | 0.00 | 71 | 1015.4 |
| 20260503230209 | 11 | 162 | 1.6 | 0.0 | 0.00 | 0.00 | 0.00 | 69 | 1015.5 |
| 20260503223210 | 11 | 238 | 4.8 | 0.0 | 0.00 | 0.00 | 0.00 | 69 | 1015.6 |
| 20260503213210 | 13 | 79 | 3.2 | 0.0 | 0.00 | 0.00 | 0.00 | 57 | 1015.3 |
| 20260503210211 | 15 | 220 | 6.4 | 0.0 | 0.00 | 0.00 | 0.00 | 51 | 1014.9 |
| 20260503203209 | 16 | 275 | 8.0 | 0.0 | 0.00 | 0.00 | 0.00 | 49 | 1014.6 |
| 20260503200211 | 17 | 255 | 11.3 | 0.0 | 0.00 | 0.00 | 0.00 | 45 | 1014.4 |
| 20260503193210 | 17 | 255 | 12.9 | 0.0 | 0.00 | 0.00 | 0.00 | 43 | 1014.1 |
| 20260503190210 | 18 | 293 | 19.3 | 0.0 | 0.00 | 0.00 | 0.00 | 43 | 1013.4 |
| 20260503183209 | 18 | 323 | 8.0 | 0.0 | 0.00 | 0.00 | 0.00 | 54 | 1012.7 |
| 20260503180210 | 19 | 316 | 11.3 | 0.0 | 0.00 | 0.00 | 0.00 | 52 | 1012.7 |
| 20260503173209 | 20 | 327 | 12.9 | 0.0 | 0.00 | 0.00 | 0.00 | 53 | 1012.5 |
| 20260503170211 | 23 | 322 | 12.9 | 0.0 | 0.00 | 0.00 | 0.00 | 41 | 1012.5 |
| 20260503160211 | 26 | 269 | 17.7 | 0.0 | 0.00 | 0.00 | 0.00 | 25 | 1012.1 |
| 20260503150209 | 26 | 249 | 16.1 | 0.0 | 0.00 | 0.00 | 0.00 | 25 | 1012.2 |
| 20260503140210 | 26 | 234 | 20.9 | 0.0 | 0.00 | 0.00 | 0.00 | 32 | 1012.7 |
| 20260503130210 | 24 | 267 | 17.7 | 0.0 | 0.00 | 0.00 | 0.00 | 37 | 1013.5 |
| 20260503120210 | 23 | 301 | 14.5 | 0.0 | 0.00 | 0.00 | 0.00 | 35 | 1013.8 |
| 20260503110210 | 23 | 304 | 6.4 | 0.0 | 0.00 | 0.00 | 0.00 | 35 | 1014.2 |
| 20260503100212 | 22 | 310 | 11.3 | 0.0 | 0.00 | 0.00 | 0.00 | 37 | 1014.8 |